| time (UTC) | temp F | wind direction | speed knots | gust knots | rain 1hr in | rain 24hr in | rain mn in | humidity % | barometer mb |
| 20260906213033 | 92 | 0.0 | 3.5 | 0.00 | 0.00 | 0.00 | 32 | 1002.6 | |
| 20260906211505 | 90 | 0.0 | 3.5 | 0.00 | 0.00 | 0.00 | 36 | 1002.9 | |
| 20260906210039 | 88 | 0.0 | 4.3 | 0.00 | 0.00 | 0.00 | 38 | 1003.0 | |
| 20260906204504 | 86 | 0.9 | 7.0 | 0.00 | 0.00 | 0.00 | 39 | 1003.3 | |
| 20260906203023 | 86 | 1.7 | 7.0 | 0.00 | 0.00 | 0.00 | 39 | 1003.4 | |
| 20260906201518 | 85 | 2.6 | 5.2 | 0.00 | 0.00 | 0.00 | 39 | 1003.4 | |
| 20260906200038 | 85 | 2.6 | 6.1 | 0.00 | 0.00 | 0.00 | 38 | 1003.7 | |
| 20260906194551 | 84 | 2.6 | 5.2 | 0.00 | 0.00 | 0.00 | 40 | 1003.7 | |
| 20260906193019 | 84 | 2.6 | 5.2 | 0.00 | 0.00 | 0.00 | 40 | 1003.7 | |
| 20260906191541 | 83 | 2.6 | 5.2 | 0.00 | 0.00 | 0.00 | 43 | 1003.9 | |
| 20260906190110 | 83 | 2.6 | 6.1 | 0.00 | 0.00 | 0.00 | 42 | 1004.2 | |
| 20260906184504 | 82 | 1.7 | 4.3 | 0.00 | 0.00 | 0.00 | 45 | 1004.6 | |
| 20260906183043 | 82 | 0.0 | 1.7 | 0.00 | 0.00 | 0.00 | 48 | 1004.8 | |
| 20260906181601 | 81 | 0.0 | 2.6 | 0.00 | 0.00 | 0.00 | 49 | 1005.1 | |
| 20260906180012 | 79 | 1.7 | 4.3 | 0.00 | 0.00 | 0.00 | 52 | 1005.4 | |
| 20260906174532 | 78 | 0.9 | 4.3 | 0.00 | 0.00 | 0.00 | 54 | 1005.7 | |
| 20260906173051 | 78 | 0.0 | 1.7 | 0.00 | 0.00 | 0.00 | 58 | 1006.1 | |
| 20260906171507 | 75 | 0.9 | 5.2 | 0.00 | 0.00 | 0.00 | 59 | 1006.3 | |
| 20260906170033 | 75 | 0.0 | 2.6 | 0.00 | 0.00 | 0.00 | 62 | 1006.7 | |
| 20260906164550 | 74 | 0.0 | 4.3 | 0.00 | 0.00 | 0.00 | 64 | 1006.6 | |
| 20260906163003 | 73 | 0.0 | 3.5 | 0.00 | 0.00 | 0.00 | 65 | 1006.5 | |
| 20260906161524 | 73 | 0.0 | 3.5 | 0.00 | 0.00 | 0.00 | 64 | 1006.7 | |
| 20260906160033 | 72 | 2.6 | 4.3 | 0.00 | 0.00 | 0.00 | 65 | 1006.7 | |
| 20260906154505 | 71 | 0.9 | 3.5 | 0.00 | 0.00 | 0.00 | 66 | 1006.9 | |
| 20260906153027 | 70 | 0.9 | 4.3 | 0.00 | 0.00 | 0.00 | 69 | 1007.0 | |
| 20260906151533 | 69 | 0.9 | 2.6 | 0.00 | 0.00 | 0.00 | 70 | 1007.1 | |
| 20260906150057 | 67 | 0.9 | 3.5 | 0.00 | 0.00 | 0.00 | 72 | 1007.3 | |
| 20260906144506 | 68 | 1.7 | 3.5 | 0.00 | 0.00 | 0.00 | 71 | 1007.3 | |
| 20260906143033 | 67 | 0.9 | 3.5 | 0.00 | 0.00 | 0.00 | 73 | 1007.3 | |
| 20260906141550 | 66 | 0.9 | 2.6 | 0.00 | 0.00 | 0.00 | 75 | 1007.3 | |
| 20260906140005 | 64 | 0.0 | 1.7 | 0.00 | 0.00 | 0.00 | 75 | 1007.5 | |
| 20260906134537 | 63 | 0.9 | 2.6 | 0.00 | 0.00 | 0.00 | 74 | 1007.4 | |
| 20260906133056 | 62 | 0.0 | 0.9 | 0.00 | 0.00 | 0.00 | 73 | 1007.3 | |
| 20260906131506 | 62 | 0.0 | 0.9 | 0.00 | 0.00 | 0.00 | 74 | 1007.3 | |
| 20260906130024 | 61 | 0.0 | 0.9 | 0.00 | 0.00 | 0.00 | 73 | 1007.1 | |
| 20260906124537 | 61 | 0.0 | 0.0 | 0.00 | 0.00 | 0.00 | 73 | 1007.0 | |
| 20260906123057 | 61 | 0.0 | 0.9 | 0.00 | 0.00 | 0.00 | 73 | 1007.0 | |
| 20260906121511 | 62 | 0.0 | 0.0 | 0.00 | 0.00 | 0.00 | 73 | 1006.9 | |
| 20260906120042 | 62 | 0.0 | 0.9 | 0.00 | 0.00 | 0.00 | 73 | 1006.9 | |
| 20260906114610 | 62 | 0.0 | 0.9 | 0.00 | 0.00 | 0.00 | 73 | 1006.8 | |
| 20260906113015 | 63 | 0.0 | 0.0 | 0.00 | 0.00 | 0.00 | 73 | 1006.6 | |
| 20260906111537 | 63 | 0.0 | 0.9 | 0.00 | 0.00 | 0.00 | 74 | 1006.6 | |
| 20260906110051 | 64 | 0.0 | 4.3 | 0.00 | 0.00 | 0.00 | 74 | 1006.5 | |
| 20260906104527 | 65 | 0.0 | 2.6 | 0.00 | 0.00 | 0.00 | 74 | 1006.3 | |
| 20260906103035 | 65 | 0.9 | 3.5 | 0.00 | 0.00 | 0.00 | 74 | 1006.3 | |
| 20260906101549 | 66 | 0.0 | 1.7 | 0.00 | 0.00 | 0.00 | 75 | 1006.5 | |
| 20260906100002 | 66 | 0.0 | 2.6 | 0.00 | 0.00 | 0.00 | 74 | 1006.5 | |
| 20260906094520 | 66 | 0.0 | 1.7 | 0.00 | 0.00 | 0.00 | 73 | 1006.5 | |
| 20260906093058 | 66 | 0.0 | 1.7 | 0.00 | 0.00 | 0.00 | 72 | 1006.1 | |
| 20260906091535 | 66 | 0.0 | 0.0 | 0.00 | 0.00 | 0.00 | 72 | 1006.0 | |
| 20260906090100 | 66 | 0.0 | 0.9 | 0.00 | 0.00 | 0.00 | 71 | 1005.9 | |
| 20260906084535 | 66 | 0.0 | 0.9 | 0.00 | 0.00 | 0.00 | 70 | 1005.9 | |
| 20260906083006 | 66 | 0.0 | 1.7 | 0.00 | 0.00 | 0.00 | 70 | 1006.0 | |
| 20260906081534 | 66 | 0.0 | 0.9 | 0.00 | 0.00 | 0.00 | 70 | 1006.1 | |
| 20260906080045 | 66 | 0.0 | 0.9 | 0.00 | 0.00 | 0.00 | 68 | 1006.2 | |
| 20260906074603 | 66 | 0.0 | 2.6 | 0.00 | 0.00 | 0.00 | 66 | 1006.0 | |
| 20260906073018 | 67 | 0.0 | 2.6 | 0.00 | 0.00 | 0.00 | 65 | 1005.9 | |
| 20260906071546 | 67 | 0.0 | 3.5 | 0.00 | 0.00 | 0.00 | 64 | 1005.9 | |
| 20260906070014 | 67 | 0.9 | 3.5 | 0.00 | 0.00 | 0.00 | 65 | 1005.9 | |
| 20260906064532 | 67 | 0.0 | 0.0 | 0.00 | 0.00 | 0.00 | 62 | 1006.0 | |
| 20260906063046 | 67 | 0.0 | 0.9 | 0.00 | 0.00 | 0.00 | 60 | 1006.0 | |
| 20260906061605 | 67 | 0.0 | 0.0 | 0.00 | 0.00 | 0.00 | 60 | 1006.1 | |
| 20260906060016 | 68 | 0.0 | 1.7 | 0.00 | 0.00 | 0.00 | 58 | 1005.8 | |
| 20260906054549 | 70 | 0.0 | 1.7 | 0.00 | 0.00 | 0.00 | 56 | 1005.5 | |
| 20260906053058 | 71 | 0.0 | 0.9 | 0.00 | 0.00 | 0.00 | 52 | 1005.6 | |
| 20260906051511 | 71 | 0.0 | 3.5 | 0.00 | 0.00 | 0.00 | 50 | 1005.8 | |
| 20260906050029 | 70 | 0.9 | 3.5 | 0.00 | 0.00 | 0.00 | 49 | 1005.3 | |
| 20260906044553 | 70 | 0.0 | 0.0 | 0.00 | 0.00 | 0.00 | 48 | 1005.2 | |
| 20260906043008 | 71 | 0.0 | 0.9 | 0.00 | 0.00 | 0.00 | 46 | 1004.8 | |
| 20260906041525 | 72 | 0.0 | 1.7 | 0.00 | 0.00 | 0.00 | 44 | 1004.5 | |
| 20260906040113 | 73 | 0.0 | 1.7 | 0.00 | 0.00 | 0.00 | 44 | 1004.5 | |
| 20260906034518 | 74 | 0.0 | 3.5 | 0.00 | 0.00 | 0.00 | 42 | 1004.4 | |
| 20260906033055 | 75 | 0.9 | 2.6 | 0.00 | 0.00 | 0.00 | 40 | 1004.1 | |
| 20260906031609 | 75 | 0.0 | 2.6 | 0.00 | 0.00 | 0.00 | 39 | 1004.1 | |
| 20260906030017 | 76 | 0.0 | 1.7 | 0.00 | 0.00 | 0.00 | 38 | 1004.0 | |
| 20260906024537 | 76 | 0.0 | 1.7 | 0.00 | 0.00 | 0.00 | 40 | 1003.9 | |
| 20260906023157 | 76 | 0.0 | 0.9 | 0.00 | 0.00 | 0.00 | 38 | 1003.9 | |
| 20260906021503 | 77 | 0.0 | 0.9 | 0.00 | 0.00 | 0.00 | 37 | 1003.6 | |
| 20260906020043 | 78 | 0.0 | 1.7 | 0.00 | 0.00 | 0.00 | 36 | 1003.4 | |
| 20260906014606 | 79 | 0.0 | 0.9 | 0.00 | 0.00 | 0.00 | 34 | 1003.2 | |
| 20260906013008 | 81 | 0.9 | 6.1 | 0.00 | 0.00 | 0.00 | 32 | 1002.9 | |
| 20260906011528 | 82 | 0.9 | 4.3 | 0.00 | 0.00 | 0.00 | 31 | 1002.9 | |
| 20260906010043 | 83 | 1.7 | 6.1 | 0.00 | 0.00 | 0.00 | 29 | 1003.0 | |
| 20260906004509 | 84 | 3.5 | 7.8 | 0.00 | 0.00 | 0.00 | 28 | 1003.0 | |
| 20260906003025 | 85 | 2.6 | 7.0 | 0.00 | 0.00 | 0.00 | 27 | 1003.0 | |
| 20260906001541 | 87 | 4.3 | 9.6 | 0.00 | 0.00 | 0.00 | 24 | 1002.8 | |
| 20260906000059 | 90 | 0.0 | 2.6 | 0.00 | 0.00 | 0.00 | 21 | 1002.7 | |
| 20260905234509 | 90 | 0.9 | 3.5 | 0.00 | 0.00 | 0.00 | 21 | 1002.5 | |
| 20260905233042 | 91 | 0.0 | 0.9 | 0.00 | 0.00 | 0.00 | 22 | 1002.5 | |
| 20260905231556 | 91 | 0.0 | 2.6 | 0.00 | 0.00 | 0.00 | 21 | 1002.2 | |
| 20260905230010 | 91 | 0.9 | 3.5 | 0.00 | 0.00 | 0.00 | 21 | 1002.0 | |
| 20260905224536 | 92 | 0.9 | 3.5 | 0.00 | 0.00 | 0.00 | 20 | 1001.9 | |
| 20260905223009 | 95 | 0.0 | 1.7 | 0.00 | 0.00 | 0.00 | 18 | 1001.9 | |
| 20260905221546 | 93 | 0.9 | 5.2 | 0.00 | 0.00 | 0.00 | 19 | 1002.0 | |
| 20260905220002 | 94 | 1.7 | 5.2 | 0.00 | 0.00 | 0.00 | 18 | 1002.0 | |
| 20260905214517 | 92 | 1.7 | 7.0 | 0.00 | 0.00 | 0.00 | 19 | 1002.3 |